Voltar ao catálogo

SL-16 DEB

AtivoLEO
NORAD 22417·DEBRIS·🇷🇺 Russia

Lançado Dec 25, 1992 de Baikonur Cosmodrome

Loading…

Próximas Passagens (próximas 24 horas)

TLE

AtualizadoSource: Space-Track

Época: Sep 14, 2026, 14:57 UTC

1 22417U 92093DJ  26257.62303047  .00000035  00000-0  54678-4 0  9998
2 22417  71.1825 214.1075 0088182 311.7749 221.6920 13.97691256718132

Acompanhe SL-16 DEB em tempo real com AllMySat

Download on the App Store